User: anonymous   Login
Location: Dammartin
(48.9032°N, 1.6195°E)
Time: 02:01:49
(UTC+00:00)
Language:

Cosmos 841 Rocket - Orbit

View from above orbital plane
View from above orbital plane
View from above satellite
View from above satellite

Ground track
Ground track

The orbit data is extracted from the following two-line orbital elements,

1 09023U 76069B   24144.34505085  .00000820  00000-0  26618-3 0  9993
2 09023  74.0420 101.9698 0017175 357.2302   2.8755 14.40388977508955
Epoch (UTC): 23 May 2024 08:16:52
Eccentricity: 0.0017175
inclination: 74.0420°
perigee height: 745 km
apogee height: 769 km
right ascension of ascending node: 101.9698°
argument of perigee: 357.2302°
revolutions per day: 14.40388977
mean anomaly at epoch: 2.8755°
orbit number at epoch: 50895

The dashed part of the orbit path shows where the satellite is in the earth's shadow,  

DLR